Location: Erlenbrunn
(49.1717°N, 7.6142°E)
Time: 04:11:08
(UTC+00:00)

Cosmos 405 Rocket - Pass Details

Date: 25 November 2020
Orbit: 489 x 554 km, 81.3° (Epoch: 24 January)

Event Time Altitude Azimuth Distance (km) Brightness Sun altitude
Rises 16:21:10 0° 349° (N) 2,658 6.2 -7.1°
Reaches altitude 10° 16:23:18 10° 351° (N) 1,775 5.3 -7.4°
Maximum altitude 16:27:12 78° 78° (ENE) 550 2.7 -8.0°
Drops below altitude 10° 16:31:10 10° 165° (SSE) 1,798 5.5 -8.6°
Sets 16:33:20 0° 167° (SSE) 2,694 6.5 -8.9°
